Location: Zürich
(47.3769°N, 8.5417°E)
Time: 10:42:11
(UTC+02:00)

ISS - Pass Details

Date: 27 May 2021
Orbit: 417 x 422 km, 51.6° (Epoch: 13 June)

Event Time Altitude Azimuth Distance (km) Brightness Sun altitude
Rises 22:13:25 0° 293° (WNW) 2,366 1.5 -9.1°
Reaches altitude 10° 22:15:31 10° 296° (WNW) 1,501 0.4 -9.3°
Maximum altitude 22:18:53 68° 21° (NNE) 456 -3.5 -9.7°
Enters shadow 22:22:05 11° 104° (ESE) 1,436 -1.5 -10.1°
